Home   Weather   Porto Novo   Past weeks

Flag for Benin Past Weather in Porto Novo, Benin — Yesterday and Last 2 Weeks

Now
84 °F

Passing clouds.


Feels Like: 94 °F
Forecast: 81 / 90 °F
Wind: 6 mph from South

Location: Cotonou Airport

Current Time: Apr 28, 2017 at 1:48:36 am

Latest Report: Apr 28, 2017 at 12:00 am


Visibility: N/A

Pressure: 29.86 "Hg

Humidity: 79%

Dew Point: 77 °F

Location of Porto NovoLocation

Past Weather in Porto Novo — Graph

°F

Porto Novo Temperature Yesterday

Maximum temperature yesterday: 91 °F (at 12:00 pm)
Minimum temperature yesterday: 82 °F (at 4:00 am)
Average temperature yesterday: 86 °F

High & Low Weather Summary for the Past Weeks

 TemperatureHumidityPressure
High91 °F (Apr 13, 12:00 pm)94% (Apr 14, 4:00 am)29.89 "Hg (Apr 14, 4:00 am)
Low77 °F (Apr 14, 4:00 am)63% (Apr 18, 2:00 pm)29.68 "Hg (Apr 13, 4:00 pm)
Average85 °F81%29.79 "Hg
* Reported Apr 13 12:00 am — Apr 28 12:00 am, Porto Novo, Weather by CustomWeather, © 2017

Note: Actual official high and low records may vary slightly from our data, if they occured in-between our weather recording intervals... More about our weather records

Advertising

Porto Novo Weather History for the Previous 24 Hours

Scroll right to see more
 ConditionsComfort  
Time TempWeatherWind HumidityBarometerVisibility
12:00 am
Fri, Apr 28
84 °FPassing clouds.6 mph79%29.86 "HgN/A
11:00 pm
Thu, Apr 27
84 °FPassing clouds.7 mph79%29.86 "HgN/A
10:00 pm84 °FPassing clouds.7 mph84%29.86 "HgN/A
9:00 pm84 °FPassing clouds.7 mph79%29.83 "HgN/A
8:00 pm84 °FPassing clouds.8 mph79%29.80 "HgN/A
7:00 pm86 °FPassing clouds.9 mph75%29.77 "HgN/A
6:00 pm88 °FPassing clouds.9 mph70%29.77 "HgN/A
5:00 pm88 °FPassing clouds.9 mph70%29.77 "HgN/A
4:00 pm90 °FPassing clouds.9 mph67%29.80 "HgN/A
3:00 pm90 °FScattered clouds.9 mph63%29.80 "HgN/A
2:00 pm91 °FScattered clouds.9 mph63%29.83 "HgN/A
1:00 pm91 °FScattered clouds.10 mph67%29.86 "HgN/A
12:00 pm91 °FScattered clouds.8 mph67%29.89 "HgN/A
11:00 am90 °FScattered clouds.9 mph67%29.89 "HgN/A
10:00 am90 °FScattered clouds.7 mph71%29.89 "HgN/A
9:00 am86 °FScattered clouds.8 mph75%29.86 "HgN/A
8:00 am86 °FPassing clouds.5 mph75%29.86 "HgN/A
7:00 am82 °FPassing clouds.5 mph79%29.83 "Hg5 mi
6:00 am82 °FPassing clouds.3 mph79%29.83 "Hg5 mi
5:00 am82 °FPassing clouds.5 mph79%29.80 "Hg5 mi
4:00 am82 °FPassing clouds.3 mph84%29.83 "Hg5 mi
3:00 am84 °FPassing clouds.6 mph79%29.83 "Hg5 mi
2:00 am84 °FPassing clouds.7 mph74%29.83 "Hg5 mi
1:00 am84 °FPassing clouds.7 mph79%29.86 "Hg5 mi
Weather by CustomWeather, © 2017

See weather overviewHow to use our weather pages